contact:dominique.lefevre@mio.osupytheas.fr, maurice.libes@osupytheas.fr, didier.mallarino@osupytheas.fr
Project:EMSO http://www.emso-fr.org/EMSO-France
Depth: 2436.0 m
Title:EMSO Ligure Ouest : Data MII capteur AQUADOPP
Date,Latitude,Longitude,X_East,Y_North,Z_Up,Amplitude_X,Amplitude_Y,Amplitude_Z,Batterie,SoundSpeed,Heading,Pitch,Roll,Pressure,TIS,Speed,Direction
, degrees North, degrees East, m.s-1, m.s-1,m.s-1, 1, 1, 1, Volt, m.s-1, degree, degree, degree, dbar, degree_C, m.s-1, degree
2021-05-15T00:04:03,42.805,6.029,-0.056,-0.018,-0.022,102.0,104.0,101.0,13.4,1505.2,327.7,-0.8,1.8,2470.55,13.28,0.058,252.2
2021-05-15T00:07:03,42.805,6.029,-0.065,-0.033,-0.01,102.0,101.0,101.0,13.4,1505.2,326.7,-0.8,1.8,2470.569,13.28,0.072,243.1
2021-05-15T00:10:03,42.805,6.029,-0.059,-0.025,-0.002,102.0,102.0,99.0,13.4,1505.2,327.8,-0.7,1.8,2470.537,13.28,0.064,247.0
2021-05-15T00:13:03,42.805,6.029,-0.055,-0.038,-0.031,102.0,100.0,101.0,13.4,1505.2,329.1,-0.8,1.8,2470.539,13.28,0.066,235.4
2021-05-15T00:16:03,42.805,6.029,-0.085,-0.033,-0.006,103.0,102.0,100.0,13.4,1505.2,324.9,-0.8,1.8,2470.552,13.28,0.091,248.8
2021-05-15T00:19:03,42.805,6.029,-0.072,-0.023,-0.045,101.0,103.0,99.0,13.4,1505.2,325.5,-0.8,1.8,2470.552,13.28,0.075,252.3
2021-05-15T00:22:03,42.805,6.029,-0.054,-0.012,0.0,101.0,102.0,101.0,13.4,1505.2,328.2,-0.8,1.8,2470.542,13.28,0.055,257.5
2021-05-15T00:25:03,42.805,6.029,-0.072,-0.02,-0.023,100.0,102.0,101.0,13.4,1505.2,328.9,-0.8,1.8,2470.552,13.28,0.074,254.5
2021-05-15T00:28:03,42.805,6.029,-0.073,-0.032,-0.054,102.0,103.0,100.0,13.4,1505.2,326.3,-0.8,1.8,2470.513,13.28,0.079,246.3
2021-05-15T00:31:03,42.805,6.029,-0.068,-0.027,-0.011,102.0,102.0,99.0,13.4,1505.2,324.9,-0.7,1.8,2470.54,13.28,0.073,248.3
2021-05-15T00:34:03,42.805,6.029,-0.052,-0.027,-0.032,101.0,102.0,100.0,13.4,1505.2,327.9,-0.7,1.8,2470.554,13.28,0.058,242.6
2021-05-15T00:37:03,42.805,6.029,-0.099,-0.029,0.005,102.0,102.0,98.0,13.3,1505.2,325.1,-0.7,1.8,2470.529,13.28,0.103,253.7
2021-05-15T00:40:03,42.805,6.029,-0.064,-0.019,-0.008,102.0,102.0,101.0,13.4,1505.2,327.7,-0.8,1.8,2470.519,13.28,0.066,253.5
2021-05-15T00:43:03,42.805,6.029,-0.069,-0.02,-0.038,102.0,102.0,100.0,13.4,1505.2,325.0,-0.7,1.8,2470.538,13.28,0.071,253.8
2021-05-15T00:46:03,42.805,6.029,-0.05,-0.01,-0.013,101.0,102.0,101.0,13.3,1505.2,329.8,-0.7,1.8,2470.533,13.28,0.05,258.7
2021-05-15T00:49:03,42.805,6.029,-0.06,-0.025,0.016,102.0,103.0,100.0,13.4,1505.2,327.3,-0.7,1.8,2470.536,13.28,0.064,247.4
2021-05-15T00:52:03,42.805,6.029,-0.047,-0.024,-0.019,103.0,102.0,101.0,13.4,1505.2,329.2,-0.8,1.8,2470.483,13.28,0.052,243.0
2021-05-15T00:55:03,42.805,6.029,-0.069,-0.035,0.0,102.0,102.0,100.0,13.4,1505.2,326.1,-0.8,1.8,2470.467,13.28,0.077,243.1
2021-05-15T00:58:03,42.805,6.029,-0.067,-0.005,-0.014,103.0,101.0,100.0,13.3,1505.2,326.4,-0.7,1.8,2470.503,13.28,0.067,265.7
2021-05-15T01:04:03,42.805,6.029,-0.065,-0.017,-0.001,101.0,102.0,101.0,13.3,1505.2,324.5,-0.8,1.8,2470.486,13.28,0.067,255.3
2021-05-15T01:07:03,42.805,6.029,-0.061,-0.027,-0.002,102.0,102.0,102.0,13.4,1505.2,328.6,-0.7,1.9,2470.518,13.28,0.066,246.1
2021-05-15T01:10:03,42.805,6.029,-0.064,-0.016,-0.022,103.0,102.0,99.0,13.4,1505.2,327.8,-0.8,1.8,2470.481,13.28,0.065,256.0
2021-05-15T01:13:03,42.805,6.029,-0.036,-0.003,-0.004,102.0,102.0,102.0,13.3,1505.2,326.2,-0.8,1.8,2470.498,13.28,0.036,265.2
2021-05-15T01:16:03,42.805,6.029,-0.096,-0.039,-0.05,102.0,100.0,101.0,13.4,1505.2,325.9,-0.7,1.9,2470.493,13.28,0.103,247.9
2021-05-15T01:19:03,42.805,6.029,-0.046,-0.019,-0.006,103.0,102.0,100.0,13.4,1505.2,324.5,-0.8,1.8,2470.462,13.28,0.049,247.6
2021-05-15T01:22:03,42.805,6.029,-0.073,0.005,-0.024,102.0,102.0,101.0,13.3,1505.2,326.2,-0.8,1.8,2470.48,13.28,0.073,273.9
2021-05-15T01:25:03,42.805,6.029,-0.078,-0.021,-0.027,104.0,102.0,100.0,13.4,1505.2,328.1,-0.8,1.8,2470.49,13.28,0.08,254.9
2021-05-15T01:28:03,42.805,6.029,-0.051,-0.041,-0.017,102.0,102.0,100.0,13.3,1505.2,325.0,-0.8,1.8,2470.477,13.28,0.065,231.2
2021-05-15T01:31:03,42.805,6.029,-0.07,0.019,0.022,104.0,102.0,99.0,13.4,1505.2,329.3,-0.7,1.8,2470.491,13.28,0.072,285.2
2021-05-15T01:34:03,42.805,6.029,-0.079,-0.009,-0.011,102.0,100.0,100.0,13.4,1505.2,327.2,-0.7,1.8,2470.514,13.28,0.079,263.5
2021-05-15T01:37:03,42.805,6.029,-0.062,-0.013,-0.019,102.0,101.0,100.0,13.4,1505.2,329.3,-0.8,1.8,2470.462,13.28,0.063,258.2
2021-05-15T01:40:03,42.805,6.029,-0.057,-0.017,-0.009,102.0,102.0,100.0,13.3,1505.2,326.4,-0.8,1.8,2470.504,13.28,0.059,253.4
2021-05-15T01:43:03,42.805,6.029,-0.089,-0.025,-0.005,102.0,101.0,101.0,13.4,1505.2,328.8,-0.7,1.8,2470.461,13.28,0.092,254.3
2021-05-15T01:46:03,42.805,6.029,-0.071,-0.022,-0.038,102.0,102.0,100.0,13.4,1505.2,324.3,-0.7,1.8,2470.493,13.28,0.074,252.8
2021-05-15T01:49:03,42.805,6.029,-0.074,-0.006,-0.014,103.0,99.0,101.0,13.3,1505.2,327.9,-0.7,1.8,2470.494,13.28,0.074,265.4
2021-05-15T01:52:03,42.805,6.029,-0.062,-0.027,-0.032,101.0,101.0,101.0,13.4,1505.2,326.9,-0.7,1.8,2470.471,13.28,0.067,246.5
2021-05-15T01:55:03,42.805,6.029,-0.082,0.014,-0.014,100.0,103.0,100.0,13.4,1505.2,328.2,-0.8,1.8,2470.513,13.28,0.083,279.7
2021-05-15T01:58:03,42.805,6.029,-0.059,-0.018,-0.018,103.0,101.0,101.0,13.4,1505.2,327.5,-0.7,1.8,2470.454,13.28,0.061,253.0
2021-05-15T02:04:03,42.805,6.029,-0.06,-0.011,0.008,101.0,101.0,101.0,13.4,1505.2,326.0,-0.7,1.8,2470.511,13.28,0.06,259.6
2021-05-15T02:07:03,42.805,6.029,-0.061,-0.021,-0.003,103.0,102.0,100.0,13.4,1505.2,329.3,-0.7,1.8,2470.492,13.28,0.064,251.0
2021-05-15T02:10:03,42.805,6.029,-0.072,-0.014,-0.021,102.0,102.0,100.0,13.4,1505.2,328.2,-0.8,1.8,2470.467,13.28,0.073,259.0
2021-05-15T02:13:03,42.805,6.029,-0.039,0.001,0.015,102.0,101.0,99.0,13.4,1505.2,328.8,-0.7,1.8,2470.464,13.28,0.039,271.5
2021-05-15T02:16:03,42.805,6.029,-0.059,-0.039,-0.037,101.0,102.0,101.0,13.4,1505.2,324.3,-0.7,1.9,2470.525,13.28,0.07,236.5
2021-05-15T02:19:03,42.805,6.029,-0.084,-0.018,-0.027,102.0,102.0,101.0,13.3,1505.2,325.0,-0.7,1.8,2470.493,13.28,0.085,257.9
2021-05-15T02:22:03,42.805,6.029,-0.074,-0.019,-0.015,102.0,102.0,100.0,13.4,1505.2,328.6,-0.7,1.8,2470.47,13.28,0.076,255.6
2021-05-15T02:25:03,42.805,6.029,-0.076,-0.025,-0.019,101.0,102.0,100.0,13.3,1505.2,326.6,-0.8,1.8,2470.493,13.28,0.08,251.8
2021-05-15T02:28:03,42.805,6.029,-0.073,-0.014,-0.013,102.0,102.0,101.0,13.4,1505.2,327.1,-0.7,1.9,2470.532,13.28,0.074,259.1
2021-05-15T02:31:03,42.805,6.029,-0.076,-0.029,-0.041,101.0,102.0,100.0,13.4,1505.2,326.4,-0.8,1.8,2470.476,13.28,0.081,249.1
2021-05-15T02:34:03,42.805,6.029,-0.074,-0.02,-0.018,101.0,102.0,100.0,13.4,1505.2,325.4,-0.8,1.9,2470.448,13.28,0.076,254.9
2021-05-15T02:37:03,42.805,6.029,-0.086,-0.015,-0.023,101.0,101.0,100.0,13.4,1505.2,326.4,-0.8,1.8,2470.489,13.28,0.087,260.1
2021-05-15T02:40:03,42.805,6.029,-0.088,-0.005,-0.043,102.0,102.0,100.0,13.4,1505.2,326.0,-0.7,1.8,2470.454,13.28,0.088,266.8
2021-05-15T02:43:03,42.805,6.029,-0.084,-0.002,-0.024,102.0,101.0,100.0,13.4,1505.2,324.6,-0.7,1.8,2470.458,13.28,0.084,268.6
2021-05-15T02:46:03,42.805,6.029,-0.077,-0.014,-0.018,102.0,102.0,100.0,13.4,1505.2,327.7,-0.7,1.8,2470.447,13.28,0.078,259.7
2021-05-15T02:49:03,42.805,6.029,-0.069,-0.001,-0.015,102.0,100.0,100.0,13.4,1505.2,328.7,-0.7,1.8,2470.442,13.28,0.069,269.2
2021-05-15T02:52:03,42.805,6.029,-0.07,-0.023,-0.052,100.0,103.0,100.0,13.3,1505.2,326.7,-0.7,1.8,2470.462,13.28,0.073,251.8
2021-05-15T02:55:03,42.805,6.029,-0.073,-0.022,-0.019,102.0,103.0,101.0,13.4,1505.2,327.6,-0.7,1.9,2470.489,13.28,0.076,253.2
2021-05-15T02:58:03,42.805,6.029,-0.081,-0.014,-0.018,102.0,100.0,100.0,13.3,1505.2,325.6,-0.8,1.8,2470.445,13.28,0.082,260.2
2021-05-15T03:04:03,42.805,6.029,-0.081,-0.01,-0.054,102.0,101.0,99.0,13.4,1505.2,326.1,-0.8,1.8,2470.453,13.28,0.081,263.0
2021-05-15T03:07:03,42.805,6.029,-0.072,-0.019,-0.004,101.0,103.0,99.0,13.3,1505.2,327.6,-0.7,1.9,2470.44,13.28,0.074,255.2
2021-05-15T03:10:03,42.805,6.029,-0.048,-0.022,-0.011,100.0,101.0,100.0,13.4,1505.2,326.8,-0.8,1.8,2470.434,13.28,0.052,245.4
2021-05-15T03:13:03,42.805,6.029,-0.062,-0.026,-0.011,101.0,103.0,101.0,13.4,1505.2,329.2,-0.8,1.8,2470.481,13.28,0.067,247.3
2021-05-15T03:16:03,42.805,6.029,-0.027,-0.009,-0.005,102.0,102.0,101.0,13.4,1505.2,327.4,-0.8,1.8,2470.481,13.28,0.028,251.6
2021-05-15T03:19:03,42.805,6.029,-0.081,-0.016,-0.035,100.0,102.0,101.0,13.4,1505.2,329.3,-0.8,1.9,2470.44,13.28,0.082,258.8
2021-05-15T03:22:03,42.805,6.029,-0.051,-0.027,-0.043,103.0,100.0,100.0,13.4,1505.2,328.2,-0.8,1.8,2470.421,13.28,0.057,242.1
2021-05-15T03:25:03,42.805,6.029,-0.081,-0.022,-0.025,101.0,100.0,100.0,13.4,1505.2,326.3,-0.7,1.8,2470.428,13.28,0.083,254.8
2021-05-15T03:28:03,42.805,6.029,-0.069,-0.002,-0.021,102.0,104.0,99.0,13.3,1505.2,328.4,-0.7,1.8,2470.463,13.28,0.069,268.3
2021-05-15T03:31:03,42.805,6.029,-0.038,-0.033,-0.006,102.0,101.0,101.0,13.4,1505.2,324.5,-0.7,1.8,2470.42,13.28,0.05,229.0
2021-05-15T03:34:03,42.805,6.029,-0.063,-0.025,-0.006,101.0,101.0,101.0,13.3,1505.2,326.2,-0.8,1.8,2470.409,13.28,0.067,248.4
2021-05-15T03:37:03,42.805,6.029,-0.061,-0.012,-0.004,103.0,100.0,101.0,13.4,1505.2,329.4,-0.7,1.8,2470.388,13.28,0.062,258.9
2021-05-15T03:40:03,42.805,6.029,-0.061,-0.019,-0.034,102.0,101.0,100.0,13.4,1505.2,324.2,-0.7,1.8,2470.414,13.28,0.063,252.7
2021-05-15T03:43:03,42.805,6.029,-0.078,-0.017,-0.003,102.0,100.0,100.0,13.3,1505.2,324.9,-0.8,1.8,2470.42,13.28,0.079,257.7
2021-05-15T03:46:03,42.805,6.029,-0.067,-0.007,-0.021,103.0,101.0,101.0,13.4,1505.2,327.5,-0.7,1.9,2470.423,13.28,0.067,264.0
2021-05-15T03:49:03,42.805,6.029,-0.067,-0.012,0.011,102.0,101.0,100.0,13.4,1505.2,327.6,-0.7,1.8,2470.445,13.28,0.068,259.8
2021-05-15T03:52:03,42.805,6.029,-0.062,-0.019,-0.034,102.0,102.0,99.0,13.4,1505.2,326.4,-0.8,1.8,2470.445,13.28,0.064,253.0
2021-05-15T03:55:03,42.805,6.029,-0.065,-0.015,-0.034,103.0,101.0,100.0,13.4,1505.2,329.2,-0.7,1.8,2470.421,13.28,0.066,257.0
2021-05-15T03:58:03,42.805,6.029,-0.053,-0.007,-0.023,102.0,101.0,100.0,13.4,1505.2,325.0,-0.8,1.8,2470.427,13.28,0.053,262.5
2021-05-15T04:04:03,42.805,6.029,-0.06,0.014,-0.012,102.0,101.0,100.0,13.4,1505.2,329.2,-0.8,1.8,2470.413,13.28,0.061,283.1
2021-05-15T04:07:03,42.805,6.029,-0.081,-0.024,-0.048,103.0,101.0,100.0,13.4,1505.2,326.6,-0.7,1.8,2470.406,13.28,0.084,253.5
2021-05-15T04:10:03,42.805,6.029,-0.075,-0.004,-0.034,102.0,101.0,100.0,13.3,1505.2,329.3,-0.7,1.8,2470.419,13.28,0.075,267.0
2021-05-15T04:13:03,42.805,6.029,-0.058,-0.002,-0.028,102.0,101.0,100.0,13.3,1505.2,327.6,-0.8,1.8,2470.451,13.28,0.058,268.0
2021-05-15T04:16:03,42.805,6.029,-0.069,-0.008,-0.04,102.0,101.0,100.0,13.4,1505.2,329.0,-0.8,1.8,2470.446,13.28,0.069,263.4
2021-05-15T04:19:03,42.805,6.029,-0.074,-0.026,-0.012,101.0,101.0,101.0,13.3,1505.2,326.8,-0.7,1.8,2470.448,13.28,0.078,250.6
2021-05-15T04:22:03,42.805,6.029,-0.068,-0.02,0.01,102.0,102.0,100.0,13.3,1505.2,325.6,-0.8,1.8,2470.438,13.28,0.07,253.6
2021-05-15T04:25:03,42.805,6.029,-0.082,-0.023,-0.024,101.0,101.0,100.0,13.4,1505.2,325.9,-0.7,1.8,2470.435,13.28,0.085,254.3
2021-05-15T04:28:03,42.805,6.029,-0.07,-0.022,-0.037,102.0,101.0,100.0,13.4,1505.2,326.7,-0.8,1.8,2470.434,13.28,0.073,252.6
2021-05-15T04:31:03,42.805,6.029,-0.064,-0.02,-0.037,101.0,101.0,101.0,13.4,1505.2,328.0,-0.7,1.9,2470.411,13.28,0.067,252.6
2021-05-15T04:34:03,42.805,6.029,-0.071,-0.016,-0.009,102.0,101.0,101.0,13.4,1505.2,329.0,-0.7,1.8,2470.395,13.28,0.072,257.3
2021-05-15T04:37:03,42.805,6.029,-0.055,-0.026,-0.013,103.0,101.0,100.0,13.4,1505.2,329.4,-0.8,1.8,2470.409,13.28,0.06,244.7
2021-05-15T04:40:03,42.805,6.029,-0.074,0.006,-0.044,102.0,102.0,100.0,13.4,1505.2,326.0,-0.7,1.9,2470.405,13.28,0.074,274.6
2021-05-15T04:43:03,42.805,6.029,-0.051,-0.025,-0.022,102.0,102.0,99.0,13.4,1505.2,325.8,-0.8,1.8,2470.446,13.28,0.056,243.9
2021-05-15T04:46:03,42.805,6.029,-0.058,-0.02,-0.014,103.0,101.0,101.0,13.4,1505.2,327.7,-0.7,1.8,2470.393,13.28,0.061,251.0
2021-05-15T04:49:03,42.805,6.029,-0.056,-0.02,-0.004,103.0,101.0,101.0,13.4,1505.2,326.7,-0.7,1.8,2470.401,13.28,0.059,250.4
2021-05-15T04:52:03,42.805,6.029,-0.089,-0.015,-0.04,102.0,101.0,100.0,13.4,1505.2,328.8,-0.8,1.8,2470.424,13.28,0.09,260.4
2021-05-15T04:55:03,42.805,6.029,-0.068,-0.016,-0.005,101.0,101.0,100.0,13.4,1505.2,328.1,-0.7,1.8,2470.381,13.28,0.069,256.8
2021-05-15T04:58:03,42.805,6.029,-0.093,-0.012,-0.017,102.0,102.0,99.0,13.4,1505.2,325.4,-0.8,1.8,2470.418,13.28,0.093,262.7
2021-05-15T05:04:03,42.805,6.029,-0.064,-0.006,-0.021,101.0,100.0,100.0,13.3,1505.2,327.6,-0.7,1.8,2470.442,13.28,0.064,264.6
2021-05-15T05:07:03,42.805,6.029,-0.055,0.009,-0.01,101.0,102.0,100.0,13.3,1505.2,325.4,-0.7,1.8,2470.428,13.28,0.055,279.3
2021-05-15T05:10:03,42.805,6.029,-0.052,-0.003,-0.027,102.0,100.0,100.0,13.4,1505.2,325.6,-0.7,1.8,2470.426,13.28,0.052,266.7
2021-05-15T05:13:03,42.805,6.029,-0.072,-0.015,-0.062,102.0,101.0,100.0,13.4,1505.2,326.8,-0.7,1.9,2470.439,13.28,0.073,258.2
2021-05-15T05:16:03,42.805,6.029,-0.046,-0.041,0.012,103.0,100.0,101.0,13.4,1505.2,327.8,-0.8,1.8,2470.43,13.28,0.061,228.3
2021-05-15T05:19:03,42.805,6.029,-0.066,0.002,-0.013,101.0,103.0,101.0,13.3,1505.2,329.2,-0.7,1.8,2470.458,13.28,0.066,271.7
2021-05-15T05:22:03,42.805,6.029,-0.061,-0.028,-0.022,101.0,103.0,100.0,13.3,1505.2,329.0,-0.7,1.9,2470.439,13.28,0.067,245.3
2021-05-15T05:25:03,42.805,6.029,-0.054,-0.009,-0.025,103.0,102.0,101.0,13.3,1505.2,326.7,-0.8,1.8,2470.436,13.28,0.054,260.5
2021-05-15T05:28:03,42.805,6.029,-0.033,-0.025,-0.005,102.0,102.0,100.0,13.4,1505.2,328.2,-0.7,1.8,2470.431,13.28,0.041,232.9
2021-05-15T05:31:03,42.805,6.029,-0.073,-0.006,-0.032,102.0,101.0,100.0,13.4,1505.2,328.0,-0.7,1.8,2470.441,13.28,0.073,265.3
2021-05-15T05:34:03,42.805,6.029,-0.069,-0.008,-0.026,101.0,102.0,101.0,13.4,1505.2,326.2,-0.7,1.8,2470.449,13.28,0.069,263.4
2021-05-15T05:37:03,42.805,6.029,-0.065,-0.017,-0.019,100.0,101.0,102.0,13.4,1505.2,324.5,-0.8,1.8,2470.415,13.28,0.067,255.3
2021-05-15T05:40:03,42.805,6.029,-0.072,-0.026,-0.033,101.0,102.0,100.0,13.4,1505.2,325.7,-0.8,1.8,2470.416,13.28,0.076,250.1
2021-05-15T05:43:03,42.805,6.029,-0.07,-0.022,-0.022,103.0,100.0,100.0,13.3,1505.2,325.9,-0.7,1.8,2470.412,13.28,0.073,252.6
2021-05-15T05:46:03,42.805,6.029,-0.072,-0.008,-0.026,101.0,103.0,101.0,13.4,1505.2,325.8,-0.8,1.8,2470.465,13.28,0.072,263.7
2021-05-15T05:49:03,42.805,6.029,-0.056,-0.003,-0.033,102.0,102.0,101.0,13.4,1505.2,323.8,-0.7,1.8,2470.419,13.28,0.056,266.9
2021-05-15T05:52:03,42.805,6.029,-0.043,-0.004,0.01,103.0,102.0,101.0,13.4,1505.2,326.3,-0.8,1.8,2470.447,13.28,0.043,264.7
2021-05-15T05:55:03,42.805,6.029,-0.057,-0.003,-0.005,103.0,101.0,101.0,13.4,1505.2,329.6,-0.7,1.8,2470.455,13.28,0.057,267.0
2021-05-15T05:58:03,42.805,6.029,-0.061,-0.006,0.008,102.0,100.0,102.0,13.4,1505.2,323.8,-0.8,1.8,2470.405,13.28,0.061,264.4
2021-05-15T06:04:03,42.805,6.029,-0.078,0.023,-0.017,103.0,102.0,99.0,13.4,1505.2,329.7,-0.8,1.8,2470.489,13.28,0.081,286.4
2021-05-15T06:07:03,42.805,6.029,-0.057,-0.015,-0.02,102.0,101.0,101.0,13.3,1505.2,329.3,-0.8,1.8,2470.474,13.28,0.058,255.3
2021-05-15T06:10:03,42.805,6.029,-0.051,-0.033,-0.006,102.0,103.0,100.0,13.3,1505.2,327.7,-0.8,1.8,2470.468,13.28,0.06,237.1
2021-05-15T06:13:03,42.805,6.029,-0.093,-0.021,-0.056,101.0,101.0,100.0,13.3,1505.2,326.1,-0.7,1.8,2470.445,13.28,0.095,257.3
2021-05-15T06:16:03,42.805,6.029,-0.053,-0.017,-0.013,103.0,100.0,101.0,13.4,1505.2,324.0,-0.7,1.8,2470.433,13.28,0.055,252.2
2021-05-15T06:19:03,42.805,6.029,-0.043,-0.034,-0.059,102.0,101.0,100.0,13.3,1505.2,325.1,-0.8,1.8,2470.446,13.28,0.054,231.7
2021-05-15T06:22:03,42.805,6.029,-0.098,-0.007,0.001,102.0,102.0,100.0,13.4,1505.2,328.1,-0.7,1.8,2470.424,13.28,0.098,265.9
2021-05-15T06:25:03,42.805,6.029,-0.057,-0.016,-0.021,102.0,102.0,100.0,13.4,1505.2,328.0,-0.7,1.8,2470.471,13.28,0.059,254.3
2021-05-15T06:28:03,42.805,6.029,-0.059,-0.004,0.013,103.0,100.0,101.0,13.3,1505.2,325.7,-0.8,1.8,2470.501,13.28,0.059,266.1
2021-05-15T06:31:03,42.805,6.029,-0.077,-0.022,0.005,103.0,101.0,101.0,13.4,1505.2,325.7,-0.7,1.8,2470.463,13.28,0.08,254.1
2021-05-15T06:34:03,42.805,6.029,-0.069,-0.018,-0.017,102.0,103.0,100.0,13.4,1505.2,325.1,-0.8,1.8,2470.461,13.28,0.071,255.4
2021-05-15T06:37:03,42.805,6.029,-0.035,-0.024,0.0,102.0,103.0,101.0,13.4,1505.2,327.4,-0.8,1.8,2470.416,13.28,0.042,235.6
2021-05-15T06:40:03,42.805,6.029,-0.069,-0.019,-0.008,103.0,102.0,100.0,13.4,1505.2,327.6,-0.7,1.8,2470.462,13.28,0.071,254.6
2021-05-15T06:43:03,42.805,6.029,-0.057,-0.027,-0.032,102.0,101.0,100.0,13.4,1505.2,329.4,-0.8,1.8,2470.495,13.28,0.063,244.7
2021-05-15T06:46:03,42.805,6.029,-0.066,-0.026,-0.031,104.0,101.0,101.0,13.4,1505.2,328.2,-0.8,1.8,2470.485,13.28,0.07,248.5
2021-05-15T06:49:03,42.805,6.029,-0.052,-0.024,-0.078,102.0,100.0,100.0,13.4,1505.2,328.3,-0.7,1.8,2470.467,13.28,0.057,245.2
2021-05-15T06:52:03,42.805,6.029,-0.044,-0.01,-0.04,101.0,101.0,101.0,13.4,1505.2,327.7,-0.7,1.8,2470.421,13.28,0.045,257.2
2021-05-15T06:55:03,42.805,6.029,-0.065,-0.025,-0.017,102.0,102.0,100.0,13.4,1505.2,325.3,-0.7,1.8,2470.445,13.28,0.069,249.0
2021-05-15T06:58:03,42.805,6.029,-0.058,-0.027,-0.013,100.0,102.0,101.0,13.3,1505.2,329.5,-0.7,1.8,2470.443,13.28,0.063,245.0
2021-05-15T07:04:03,42.805,6.029,-0.067,-0.021,-0.013,102.0,100.0,100.0,13.3,1505.2,324.3,-0.8,1.8,2470.511,13.28,0.07,252.6
2021-05-15T07:07:03,42.805,6.029,-0.05,-0.028,-0.025,102.0,102.0,99.0,13.3,1505.2,325.6,-0.8,1.8,2470.46,13.28,0.057,240.7
2021-05-15T07:10:03,42.805,6.029,-0.044,-0.021,-0.016,102.0,104.0,101.0,13.4,1505.2,326.0,-0.7,1.8,2470.45,13.28,0.048,244.5
2021-05-15T07:13:03,42.805,6.029,-0.049,-0.003,-0.047,102.0,102.0,100.0,13.3,1505.2,326.0,-0.8,1.8,2470.493,13.28,0.049,266.5
2021-05-15T07:16:03,42.805,6.029,-0.049,-0.013,-0.025,101.0,103.0,100.0,13.3,1505.2,323.8,-0.7,1.8,2470.517,13.28,0.05,255.1
2021-05-15T07:19:03,42.805,6.029,-0.061,-0.016,-0.033,103.0,102.0,99.0,13.4,1505.2,327.2,-0.7,1.8,2470.475,13.28,0.063,255.3
2021-05-15T07:22:03,42.805,6.029,-0.047,-0.004,-0.016,102.0,101.0,100.0,13.4,1505.2,326.2,-0.8,1.8,2470.482,13.28,0.047,265.1
2021-05-15T07:25:03,42.805,6.029,-0.05,-0.023,-0.024,103.0,101.0,101.0,13.3,1505.2,324.7,-0.8,1.8,2470.483,13.28,0.055,245.3
2021-05-15T07:28:03,42.805,6.029,-0.067,-0.037,-0.02,102.0,101.0,100.0,13.4,1505.2,328.6,-0.7,1.8,2470.473,13.28,0.076,241.1
2021-05-15T07:31:03,42.805,6.029,-0.058,-0.026,-0.015,103.0,100.0,100.0,13.4,1505.2,325.7,-0.7,1.8,2470.467,13.28,0.063,245.9
2021-05-15T07:34:03,42.805,6.029,-0.059,-0.001,-0.003,101.0,103.0,100.0,13.3,1505.2,329.5,-0.8,1.8,2470.519,13.28,0.059,269.0
2021-05-15T07:37:03,42.805,6.029,-0.077,-0.018,0.006,102.0,102.0,101.0,13.4,1505.2,326.8,-0.7,1.8,2470.491,13.28,0.079,256.8
2021-05-15T07:40:03,42.805,6.029,-0.05,-0.024,-0.034,102.0,102.0,100.0,13.4,1505.2,325.7,-0.8,1.8,2470.51,13.28,0.055,244.4
2021-05-15T07:43:03,42.805,6.029,-0.05,-0.009,0.009,102.0,102.0,100.0,13.3,1505.2,326.7,-0.7,1.8,2470.479,13.28,0.05,259.8
2021-05-15T07:46:03,42.805,6.029,-0.052,-0.034,-0.023,101.0,102.0,100.0,13.3,1505.2,325.5,-0.7,1.9,2470.452,13.28,0.062,236.8
2021-05-15T07:49:03,42.805,6.029,-0.051,-0.032,-0.012,103.0,102.0,101.0,13.3,1505.2,325.3,-0.7,1.8,2470.508,13.28,0.06,237.9
2021-05-15T07:52:03,42.805,6.029,-0.06,-0.009,-0.011,101.0,101.0,101.0,13.4,1505.2,326.8,-0.7,1.8,2470.498,13.28,0.06,261.5
2021-05-15T07:55:03,42.805,6.029,-0.048,-0.015,-0.019,101.0,101.0,100.0,13.4,1505.2,325.4,-0.7,1.8,2470.501,13.28,0.05,252.6
2021-05-15T07:58:03,42.805,6.029,-0.08,-0.028,-0.015,102.0,103.0,100.0,13.4,1505.2,326.4,-0.8,1.8,2470.512,13.28,0.084,250.7
2021-05-15T08:04:03,42.805,6.029,-0.057,-0.03,-0.033,102.0,102.0,100.0,13.4,1505.2,327.3,-0.8,1.8,2470.475,13.28,0.064,242.2
2021-05-15T08:07:03,42.805,6.029,-0.064,-0.028,-0.038,103.0,101.0,100.0,13.4,1505.2,326.8,-0.8,1.8,2470.49,13.28,0.069,246.4
2021-05-15T08:10:03,42.805,6.029,-0.048,-0.017,-0.036,102.0,103.0,99.0,13.4,1505.2,325.8,-0.7,1.8,2470.492,13.28,0.05,250.5
2021-05-15T08:13:03,42.805,6.029,-0.054,-0.021,-0.014,101.0,100.0,102.0,13.4,1505.2,326.7,-0.8,1.8,2470.464,13.28,0.057,248.8
2021-05-15T08:16:03,42.805,6.029,-0.056,-0.014,-0.034,102.0,100.0,100.0,13.4,1505.2,324.9,-0.7,1.8,2470.499,13.28,0.057,256.0
2021-05-15T08:19:03,42.805,6.029,-0.074,0.0,-0.002,102.0,102.0,100.0,13.4,1505.2,325.6,-0.7,1.8,2470.483,13.28,0.073,270.0
2021-05-15T08:22:03,42.805,6.029,-0.038,-0.024,-0.03,102.0,101.0,100.0,13.4,1505.2,325.7,-0.7,1.8,2470.496,13.28,0.044,237.7
2021-05-15T08:25:03,42.805,6.029,-0.06,-0.02,-0.011,101.0,103.0,103.0,13.4,1505.2,329.2,-0.8,1.8,2470.499,13.28,0.063,251.6
2021-05-15T08:28:03,42.805,6.029,-0.046,-0.042,-0.052,101.0,102.0,101.0,13.4,1505.2,324.3,-0.7,1.8,2470.474,13.28,0.062,227.6
2021-05-15T08:31:03,42.805,6.029,-0.051,-0.016,-0.029,102.0,102.0,101.0,13.4,1505.2,327.9,-0.8,1.8,2470.475,13.28,0.053,252.6
2021-05-15T08:34:03,42.805,6.029,-0.053,-0.029,-0.006,101.0,102.0,100.0,13.4,1505.2,327.1,-0.8,1.8,2470.488,13.28,0.06,241.3
2021-05-15T08:37:03,42.805,6.029,-0.068,-0.036,-0.059,102.0,102.0,101.0,13.4,1505.2,327.6,-0.8,1.8,2470.482,13.28,0.076,242.1
2021-05-15T08:40:03,42.805,6.029,-0.058,-0.003,-0.026,101.0,102.0,100.0,13.4,1505.2,326.0,-0.7,1.8,2470.475,13.28,0.058,267.0
2021-05-15T08:43:03,42.805,6.029,-0.06,-0.032,-0.021,102.0,102.0,101.0,13.4,1505.2,327.4,-0.7,1.8,2470.469,13.28,0.067,241.9
2021-05-15T08:46:03,42.805,6.029,-0.089,0.002,0.01,102.0,102.0,99.0,13.4,1505.2,326.0,-0.8,1.8,2470.519,13.28,0.089,271.3
2021-05-15T08:49:03,42.805,6.029,-0.048,-0.01,-0.013,104.0,100.0,100.0,13.3,1505.2,328.1,-0.7,1.8,2470.441,13.28,0.049,258.2
2021-05-15T08:52:03,42.805,6.029,-0.071,-0.016,-0.016,101.0,103.0,100.0,13.4,1505.2,324.0,-0.7,1.8,2470.496,13.28,0.072,257.3
2021-05-15T08:55:03,42.805,6.029,-0.069,-0.036,0.012,103.0,101.0,101.0,13.4,1505.2,324.5,-0.8,1.8,2470.509,13.28,0.077,242.4
2021-05-15T08:58:03,42.805,6.029,-0.069,-0.037,-0.036,101.0,101.0,100.0,13.4,1505.2,328.1,-0.8,1.9,2470.5,13.28,0.078,241.8
2021-05-15T09:04:03,42.805,6.029,-0.056,0.005,0.001,101.0,102.0,100.0,13.4,1505.2,327.3,-0.7,1.8,2470.504,13.28,0.056,275.1
2021-05-15T09:07:03,42.805,6.029,-0.058,-0.048,-0.022,102.0,101.0,100.0,13.4,1505.2,327.9,-0.8,1.8,2470.488,13.28,0.075,230.4
2021-05-15T09:10:03,42.805,6.029,-0.031,-0.036,-0.019,101.0,102.0,102.0,13.4,1505.2,328.9,-0.7,1.9,2470.509,13.28,0.047,220.7
2021-05-15T09:13:03,42.805,6.029,-0.055,-0.007,-0.058,101.0,102.0,99.0,13.4,1505.2,324.8,-0.8,1.8,2470.493,13.28,0.055,262.7
2021-05-15T09:16:03,42.805,6.029,-0.066,-0.009,0.0,103.0,101.0,101.0,13.4,1505.2,326.9,-0.8,1.8,2470.487,13.28,0.066,262.2
2021-05-15T09:19:03,42.805,6.029,-0.053,-0.018,-0.023,102.0,100.0,101.0,13.3,1505.2,329.1,-0.8,1.8,2470.464,13.28,0.055,251.2
2021-05-15T09:22:03,42.805,6.029,-0.06,-0.034,-0.023,100.0,101.0,101.0,13.4,1505.2,328.6,-0.7,1.8,2470.477,13.28,0.068,240.5
2021-05-15T09:25:03,42.805,6.029,-0.062,-0.02,-0.012,103.0,101.0,99.0,13.3,1505.2,323.9,-0.8,1.8,2470.477,13.28,0.065,252.1
2021-05-15T09:28:03,42.805,6.029,-0.08,-0.019,-0.044,102.0,101.0,101.0,13.3,1505.2,324.6,-0.7,1.8,2470.498,13.28,0.082,256.6
2021-05-15T09:31:03,42.805,6.029,-0.046,-0.022,-0.011,102.0,102.0,101.0,13.4,1505.2,324.9,-0.7,1.8,2470.484,13.28,0.05,244.4
2021-05-15T09:34:03,42.805,6.029,-0.073,-0.017,-0.023,100.0,102.0,100.0,13.4,1505.2,325.3,-0.7,1.8,2470.514,13.28,0.074,256.9
2021-05-15T09:37:03,42.805,6.029,-0.059,-0.048,-0.018,103.0,101.0,99.0,13.4,1505.2,325.9,-0.7,1.8,2470.474,13.28,0.076,230.9
2021-05-15T09:40:03,42.805,6.029,-0.056,-0.026,-0.022,102.0,101.0,100.0,13.4,1505.2,325.1,-0.7,1.9,2470.49,13.28,0.061,245.1
2021-05-15T09:43:03,42.805,6.029,-0.044,-0.028,-0.016,102.0,101.0,101.0,13.4,1505.2,327.8,-0.8,1.9,2470.521,13.28,0.052,237.5
2021-05-15T09:46:03,42.805,6.029,-0.05,-0.022,-0.019,102.0,102.0,100.0,13.3,1505.2,325.4,-0.7,1.8,2470.468,13.28,0.054,246.3
2021-05-15T09:49:03,42.805,6.029,-0.05,-0.013,-0.006,104.0,101.0,101.0,13.4,1505.2,329.0,-0.7,1.8,2470.465,13.28,0.051,255.4